This demonstration page uses our WeatherBlox Daily Observations layout. Learn more.

Left ArrowRight Arrow

34.02893, -84.19858

Hourly Observations for July 6, 2022

Temp ( °F °C ) Dew Point ( °F °C ) Humidity (%) Winds ( mph kmh ) Pressure ( in mb ) Visibility ( mi km ) Precip ( " mm )
12:53 am 00:53 Clear 80 26.7 74 23.3 82 82 Calm 29.97 1015 10 16 0.00 0.00
1:53 am 01:53 Clear 78 25.6 74 23.3 87 87 Calm 29.96 1015 10 16 0.00 0.00
2:53 am 02:53 Clear 78 25.6 74 23.3 87 87 SSW 5 7 29.95 1014 10 16 0.00 0.00
3:53 am 03:53 Clear 76 24.4 73 22.8 91 91 Calm 29.96 1015 10 16 0.00 0.00
4:53 am 04:53 Cloudy 76 24.4 74 23.3 94 94 Calm 29.98 1015 10 16 0.00 0.00
5:53 am 05:53 Cloudy 77 25 74 23.3 90 90 Calm 29.99 1016 10 16 0.00 0.00
6:53 am 06:53 Partly Cloudy 76 24.4 74 23.3 94 94 SW 3 6 29.99 1016 10 16 0.00 0.00
7:53 am 07:53 Mostly Sunny 79 26.1 74 23.3 85 85 WNW 5 7 29.99 1016 10 16 0.00 0.00
8:53 am 08:53 Sunny 83 28.3 74 23.3 74 74 VRB 3 6 30.01 1016 10 16 0.00 0.00
9:53 am 09:53 Sunny 86 30 74 23.3 67 67 NW 8 13 30.01 1016 10 16 0.00 0.00
10:53 am 10:53 Sunny 90 32.2 74 23.3 59 59 W 8 13 30.01 1016 10 16 0.00 0.00
11:53 am 11:53 Partly Cloudy 89 31.7 73 22.8 59 59 SW 5 7 30.00 1016 10 16 0.00 0.00
12:53 pm 12:53 Mostly Sunny 91 32.8 72 22.2 54 54 SW 6 9 29.98 1015 10 16 0.00 0.00
1:53 pm 13:53 Sunny 92 33.3 71 21.7 51 51 WSW 9 15 29.97 1015 10 16 0.00 0.00
2:53 pm 14:53 Mostly Cloudy 92 33.3 71 21.7 51 51 WSW 10 17 29.93 1014 10 16 0.00 0.00
3:53 pm 15:53 Partly Cloudy 93 33.9 72 22.2 50 50 WNW 7 11 29.93 1013 10 16 0.00 0.00
4:53 pm 16:53 Mostly Cloudy 95 35 72 22.2 47 47 W 9 15 29.91 1013 10 16 0.00 0.00
5:53 pm 17:53 Sunny 95 35 71 21.7 46 46 undefined N/A 29.90 1012 10 16 0.00 0.00
6:53 pm 18:53 Partly Cloudy 94 34.4 72 22.2 49 49 undefined N/A 29.89 1012 10 16 0.00 0.00
7:53 pm 19:53 Mostly Sunny 91 32.8 73 22.8 56 56 W 9 15 29.92 1013 10 16 0.00 0.00
8:07 pm 20:07 Partly Cloudy with Nearby Thunderstorms 91 32.8 73 22.8 56 56 WSW 9 15 29.91 1013 10 16 0.00 0.00
8:53 pm 20:53 Clear with Nearby Thunderstorms 89 31.7 72 22.2 57 57 WSW 7 11 29.93 1013 10 16 0.00 0.00
9:09 pm 21:09 Clear 88 31.1 72 22.2 59 59 W 5 7 29.94 1014 10 16 0.00 0.00
9:53 pm 21:53 Clear with Nearby Thunderstorms 87 30.6 73 22.8 63 63 WSW 8 13 29.93 1013 10 16 0.00 0.00
10:12 pm 22:12 Clear 86 30 73 22.8 65 65 WSW 5 7 29.95 1014 10 16 0.00 0.00
10:53 pm 22:53 Mostly Cloudy 85 29.4 75 23.9 72 72 SW 6 9 29.95 1014 10 16 0.00 0.00
11:53 pm 23:53 Mostly Cloudy with Nearby Thunderstorms 85 29.4 74 23.3 70 70 NNW 5 7 29.94 1014 10 16 0.00 0.00

Powered by AerisWeather